SCP
0 0 0 0 0 0 0 0 0 0 0 0 0 0 0 0 0 0 0 0 0 0 0 0 0 0 0 0 0 0 0 0
0 0 0 0 0 0 0 0 0 0 0 0 0 0 0 0 0 0 0 0 0 0 0 0 0 0 0 0 0 0 0 0
0 0 0 -0 -0 -0 -0 -0 -0 0 0 0 0 0 0 0 0 0 0 0 0 0 0 0 0 0 0 0 0 0 0 0
0 -0 -0 -0 -0 -0 -0 -0 -0 0 0 0 0 0 0 0 0 0 0 0 0 0 0 0 0 0 0 0 0 0 0 0
0 0 0 -0 0 0 0 0 0 0 0 0 0 0 0 0 0 0 0 0 0 0 0 0 0 0 0 0 0 0 0 0
0 0 0 0 0 0 0 0 0 0 0 0 0 0 0 0 0 0 0 0 0 0 0 0 0 0 0 0 0 0 0 0
0 0 0 0 0 0 0 0 0 0 0 0 0 0 0 0 0 0 0 0 0 0 0 0 0 0 0 0 0 0 0 0
0 0 0 0 0 0 0 0 0 0 0 0 0 0 0 0 0 0 0 0 0 0 0 0 0 0 0 0 0 0 0 0
0 0 0 0 0 0 0 0 0 0 0 0 0 0 0 0 0 0 0 0 0 0 0 0 0 0 0 0 0 0 0 0
0 0 0 0 0 0 0 0 0 0 0 0 0 0 0 0 0 0 0 0 0 0 0 0 0 0 0 0 0 0 0 0
-0 0 0 0 0 0 0 0 0 0 0 0 0 0 0 0 0 0 0 0 0 0 0 0 0 0 0 0 0 0 0 0
0 0 0 0 0 0 0 0 0 0 0 0 0 0 0 0 0 0 0 0 0 0 0 0 0 0 0 0 0 0 0 0
0 0 0 0 0 0 0 0 0 0 0 0 0 0 0 0 0 0 0 0 0 0 0 0 0 0 0 0 0 0 0 0
0 0 0 0 0 0 0 0 0 0 0 0 0 0 0 0 0 0 0 0 0 0 0 0 0 0 0 0 0 0 0 0
0 0 0 0 0 0 0 0 0 0 0 0 0 0 0 0 0 0 0 0 0 0 0 0 0 0 0 0 0 0 0 0
0 0 0 0 0 0 0 0 0 0 0 0 0 0 0 0 0 0 0 0 0 0 0 0 0 0 0 0 0 0 0 0
0 0 0 0 0 0 0 0 0 0 0 0 0 0 0 0 0 0 0 0 0 0 0 0 0 0 0 0 0 0 0 0
0 0 0 0 0 0 0 0 0 0 0 0 0 0 0 0 0 0 0 0 0 0 0 0 0 0 0 0 0 0 0 0
0 0 0 0 0 0 0 0 0 0 0 0 0 0 0 0 0 0 0 0 0 0 0 0 0 0 0 0 0 0 0 0
0 0 0 0 0 0 0 0 0 0 0 0 0 0 0 0 0 0 0 0 0 0 0 0 0 0 0 0 0 0 0 0
Wind_Speed_500mb
35 43 41 42 42 42 42 43 45 46 47 47 47 47 45 44 46 52 56 58 59 61 62 61 61 61 61 61 62 60 60 58
33 25 23 25 27 30 35 39 45 48 50 51 51 50 50 52 53 55 59 62 64 65 66 66 65 65 65 65 65 65 63 62
21 25 32 41 49 52 54 54 52 52 53 53 53 54 59 61 60 60 66 68 70 69 70 71 71 70 71 71 70 69 68 66
34 44 50 56 58 58 57 55 51 53 57 61 63 63 63 64 64 66 70 74 74 75 77 76 76 77 77 76 75 75 74 72
43 47 48 48 49 50 50 51 52 51 50 51 52 54 60 66 71 76 76 78 79 79 81 81 80 81 82 81 80 80 80 77
37 39 42 46 49 51 50 51 53 53 54 56 57 54 54 56 60 69 79 80 77 81 84 85 85 86 86 85 85 84 81 79
34 38 44 48 52 56 58 61 64 65 62 60 60 63 63 62 64 69 72 75 79 82 84 87 90 91 92 90 90 87 84 84
35 38 42 48 52 55 58 60 62 66 67 68 68 69 71 73 75 73 71 72 78 79 82 88 91 93 95 94 95 93 91 89
36 41 45 48 50 53 55 59 62 64 68 71 74 78 79 81 83 82 83 80 74 77 81 82 89 90 92 94 93 94 93 93
39 45 52 52 51 52 50 52 55 56 58 62 69 79 85 89 90 89 91 89 84 72 73 78 82 84 85 88 94 97 97 95
47 48 46 46 47 51 54 59 65 70 74 76 79 86 95 99 101 98 91 92 89 92 75 69 76 74 77 76 88 98 98 95
46 42 44 50 55 61 68 73 77 80 83 88 90 95 98 104 103 102 99 94 92 89 88 79 71 69 67 66 77 91 95 94
40 41 49 58 68 73 77 81 85 88 91 93 94 95 97 98 100 97 92 93 92 87 86 84 73 71 68 67 71 78 85 89
49 53 58 64 71 77 79 84 87 89 91 93 95 94 93 94 94 93 88 86 87 84 85 84 79 74 69 65 65 73 80 81
56 60 64 64 65 70 77 82 85 89 89 91 93 95 93 92 87 84 82 80 82 81 82 82 82 82 78 74 69 71 83 81
57 60 62 65 67 68 73 78 82 85 88 89 90 91 94 92 88 81 78 70 72 75 75 76 82 79 75 68 69 70 87 84
59 63 64 63 63 66 69 72 77 81 83 84 86 87 86 88 93 81 75 69 65 63 64 77 77 77 68 65 56 61 82 91
56 58 61 62 63 66 68 72 73 77 80 82 81 80 81 82 82 92 92 76 70 63 58 55 70 66 69 59 51 52 77 90
55 57 61 63 65 66 70 73 75 75 75 77 78 77 76 74 75 74 77 87 87 69 60 57 53 54 54 54 39 49 73 87
55 57 61 64 65 66 68 71 72 71 71 71 71 70 68 69 70 69 71 73 76 76 65 55 49 35 43 43 43 52 65 85
Wind_Direction_500mb
35 23 18 11 9 6 0 353 350 349 344 337 330 323 313 301 294 283 281 279 278 276 274 271 265 258 254 250 248 246 244 244
29 29 34 18 10 5 358 352 351 345 337 332 328 321 313 307 300 292 286 283 281 279 276 272 265 258 253 250 248 246 245 245
40 13 2 1 360 355 349 342 335 330 327 326 324 320 315 308 302 296 292 288 284 280 276 272 265 259 255 253 251 249 249 249
24 21 14 5 0 0 359 356 349 340 334 328 322 315 310 306 305 303 299 292 287 283 280 275 269 263 258 255 252 251 250 250
13 8 2 356 351 349 347 346 342 340 334 330 326 322 318 312 307 305 304 296 289 284 282 278 273 268 263 258 255 253 252 251
5 353 347 342 339 336 334 333 331 331 331 331 325 317 311 307 306 303 300 300 295 288 283 278 274 270 264 259 257 256 255 254
357 350 347 342 337 333 333 332 332 330 330 325 320 321 320 318 311 304 301 297 297 291 286 281 276 272 268 264 261 259 257 255
352 346 340 337 332 330 329 327 327 328 327 327 326 321 319 317 316 313 307 302 298 293 288 282 277 274 271 267 264 260 257 255
340 334 332 330 326 325 324 324 323 323 324 325 326 325 325 322 318 315 310 305 299 296 292 286 279 273 270 268 265 262 259 255
334 333 330 329 329 330 332 332 331 331 332 333 333 330 329 327 323 317 312 308 304 297 296 292 284 278 274 268 265 261 259 256
333 336 334 336 336 333 331 329 327 328 327 327 325 324 322 320 318 314 309 304 299 298 294 295 292 283 275 268 262 261 256 254
334 338 335 331 328 328 329 326 324 322 321 319 318 316 315 312 310 308 306 302 297 293 289 286 289 288 280 269 267 261 257 253
341 337 331 330 327 324 323 321 321 319 318 317 314 313 312 311 310 308 305 302 298 295 290 284 284 286 281 274 260 257 255 253
332 328 324 322 322 322 323 321 320 321 321 320 318 318 318 316 315 312 310 305 301 297 294 290 285 283 281 279 265 251 251 247
321 318 320 324 325 322 323 324 325 324 323 323 321 320 320 319 319 316 313 309 304 300 296 294 291 288 286 277 263 245 244 247
323 326 330 331 330 328 326 324 324 325 325 324 324 323 320 319 320 320 316 313 305 299 294 291 291 291 293 290 276 253 239 240
331 331 331 330 330 329 328 329 329 328 329 328 327 325 322 321 318 319 319 316 310 301 284 283 284 288 288 285 278 256 236 236
330 333 332 332 333 333 334 333 334 332 332 331 330 329 328 327 325 322 318 319 317 314 308 289 280 279 281 278 272 244 234 235
332 331 332 335 336 336 335 334 335 335 334 333 333 333 331 329 327 325 323 321 321 322 318 313 305 284 274 272 260 242 235 237
333 332 335 336 337 336 336 335 336 336 336 335 333 333 332 330 328 327 324 322 320 321 321 321 317 301 280 270 259 249 239 224
Wind_Speed_850mb
35 43 41 42 42 42 42 43 45 46 47 47 47 47 45 44 46 52 56 58 59 61 62 61 61 61 61 61 62 60 60 58
33 25 23 25 27 30 35 39 45 48 50 51 51 50 50 52 53 55 59 62 64 65 66 66 65 65 65 65 65 65 63 62
21 25 32 41 49 52 54 54 52 52 53 53 53 54 59 61 60 60 66 68 70 69 70 71 71 70 71 71 70 69 68 66
34 44 50 56 58 58 57 55 51 53 57 61 63 63 63 64 64 66 70 74 74 75 77 76 76 77 77 76 75 75 74 72
43 47 48 48 49 50 50 51 52 51 50 51 52 54 60 66 71 76 76 78 79 79 81 81 80 81 82 81 80 80 80 77
37 39 42 46 49 51 50 51 53 53 54 56 57 54 54 56 60 69 79 80 77 81 84 85 85 86 86 85 85 84 81 79
34 38 44 48 52 56 58 61 64 65 62 60 60 63 63 62 64 69 72 75 79 82 84 87 90 91 92 90 90 87 84 84
35 38 42 48 52 55 58 60 62 66 67 68 68 69 71 73 75 73 71 72 78 79 82 88 91 93 95 94 95 93 91 89
36 41 45 48 50 53 55 59 62 64 68 71 74 78 79 81 83 82 83 80 74 77 81 82 89 90 92 94 93 94 93 93
39 45 52 52 51 52 50 52 55 56 58 62 69 79 85 89 90 89 91 89 84 72 73 78 82 84 85 88 94 97 97 95
47 48 46 46 47 51 54 59 65 70 74 76 79 86 95 99 101 98 91 92 89 92 75 69 76 74 77 76 88 98 98 95
46 42 44 50 55 61 68 73 77 80 83 88 90 95 98 104 103 102 99 94 92 89 88 79 71 69 67 66 77 91 95 94
40 41 49 58 68 73 77 81 85 88 91 93 94 95 97 98 100 97 92 93 92 87 86 84 73 71 68 67 71 78 85 89
49 53 58 64 71 77 79 84 87 89 91 93 95 94 93 94 94 93 88 86 87 84 85 84 79 74 69 65 65 73 80 81
56 60 64 64 65 70 77 82 85 89 89 91 93 95 93 92 87 84 82 80 82 81 82 82 82 82 78 74 69 71 83 81
57 60 62 65 67 68 73 78 82 85 88 89 90 91 94 92 88 81 78 70 72 75 75 76 82 79 75 68 69 70 87 84
59 63 64 63 63 66 69 72 77 81 83 84 86 87 86 88 93 81 75 69 65 63 64 77 77 77 68 65 56 61 82 91
56 58 61 62 63 66 68 72 73 77 80 82 81 80 81 82 82 92 92 76 70 63 58 55 70 66 69 59 51 52 77 90
55 57 61 63 65 66 70 73 75 75 75 77 78 77 76 74 75 74 77 87 87 69 60 57 53 54 54 54 39 49 73 87
55 57 61 64 65 66 68 71 72 71 71 71 71 70 68 69 70 69 71 73 76 76 65 55 49 35 43 43 43 52 65 85
Wind_Direction_850mb
35 23 18 11 9 6 0 353 350 349 344 337 330 323 313 301 294 283 281 279 278 276 274 271 265 258 254 250 248 246 244 244
29 29 34 18 10 5 358 352 351 345 337 332 328 321 313 307 300 292 286 283 281 279 276 272 265 258 253 250 248 246 245 245
40 13 2 1 360 355 349 342 335 330 327 326 324 320 315 308 302 296 292 288 284 280 276 272 265 259 255 253 251 249 249 249
24 21 14 5 0 0 359 356 349 340 334 328 322 315 310 306 305 303 299 292 287 283 280 275 269 263 258 255 252 251 250 250
13 8 2 356 351 349 347 346 342 340 334 330 326 322 318 312 307 305 304 296 289 284 282 278 273 268 263 258 255 253 252 251
5 353 347 342 339 336 334 333 331 331 331 331 325 317 311 307 306 303 300 300 295 288 283 278 274 270 264 259 257 256 255 254
357 350 347 342 337 333 333 332 332 330 330 325 320 321 320 318 311 304 301 297 297 291 286 281 276 272 268 264 261 259 257 255
352 346 340 337 332 330 329 327 327 328 327 327 326 321 319 317 316 313 307 302 298 293 288 282 277 274 271 267 264 260 257 255
340 334 332 330 326 325 324 324 323 323 324 325 326 325 325 322 318 315 310 305 299 296 292 286 279 273 270 268 265 262 259 255
334 333 330 329 329 330 332 332 331 331 332 333 333 330 329 327 323 317 312 308 304 297 296 292 284 278 274 268 265 261 259 256
333 336 334 336 336 333 331 329 327 328 327 327 325 324 322 320 318 314 309 304 299 298 294 295 292 283 275 268 262 261 256 254
334 338 335 331 328 328 329 326 324 322 321 319 318 316 315 312 310 308 306 302 297 293 289 286 289 288 280 269 267 261 257 253
341 337 331 330 327 324 323 321 321 319 318 317 314 313 312 311 310 308 305 302 298 295 290 284 284 286 281 274 260 257 255 253
332 328 324 322 322 322 323 321 320 321 321 320 318 318 318 316 315 312 310 305 301 297 294 290 285 283 281 279 265 251 251 247
321 318 320 324 325 322 323 324 325 324 323 323 321 320 320 319 319 316 313 309 304 300 296 294 291 288 286 277 263 245 244 247
323 326 330 331 330 328 326 324 324 325 325 324 324 323 320 319 320 320 316 313 305 299 294 291 291 291 293 290 276 253 239 240
331 331 331 330 330 329 328 329 329 328 329 328 327 325 322 321 318 319 319 316 310 301 284 283 284 288 288 285 278 256 236 236
330 333 332 332 333 333 334 333 334 332 332 331 330 329 328 327 325 322 318 319 317 314 308 289 280 279 281 278 272 244 234 235
332 331 332 335 336 336 335 334 335 335 334 333 333 333 331 329 327 325 323 321 321 322 318 313 305 284 274 272 260 242 235 237
333 332 335 336 337 336 336 335 336 336 336 335 333 333 332 330 328 327 324 322 320 321 321 321 317 301 280 270 259 249 239 224